Air Resources Laboratory banner image
Air Resources Laboratory web site National Oceanic and Atmospheric Administration (NOAA)

ky roundup


Office: LMK

ASUS43 KLMK 132202
RWRKY
KENTUCKY REGIONAL WEATHER ROUNDUP
NATIONAL WEATHER SERVICE LOUISVILLE KY
600 PM EDT SAT AUG 13 2022

NOTE "FAIR" INDICATES FEW OR NO CLOUDS BELOW 12,000 FEET
WITH NO SIGNIFICANT WEATHER AND/OR OBSTRUCTIONS TO VISIBILITY.

KYZ001>023-026-027-061>063-070>075-132300-
WESTERN AND SOUTH CENTRAL KENTUCKY

CITY           SKY/WX    TMP DP  RH WIND       PRES   REMARKS
PADUCAH        SUNNY     88  55  32 VRB3      30.03F
HENDERSON      MOSUNNY   82  60  47 CALM      30.05F
OWENSBORO      MOSUNNY   82  61  48 S7        30.05F
HOPKINSVILLE   SUNNY     82  58  44 E6        30.03F
BOWLING GREEN  PTSUNNY   84  59  42 CALM      30.04F
GLASGOW        NOT AVBL
$$

KYZ024-025-028>034-038-045-046-053-132300-
NORTH CENTRAL KENTUCKY

CITY           SKY/WX    TMP DP  RH WIND       PRES   REMARKS
LOUISVILLE/SDF PTSUNNY   83  58  42 SE10      30.04F
LOUISVILLE/LOU MOSUNNY   83  57  41 SE7       30.05F
FORT KNOX      PTSUNNY   80  57  44 NE7       30.04F
$$

KYZ035>037-039>044-047>052-055>060-089>105-132300-
NORTHEAST KENTUCKY

CITY           SKY/WX    TMP DP  RH WIND       PRES   REMARKS
LEXINGTON      MOSUNNY   83  53  35 CALM      30.07F
COVINGTON      PTSUNNY   80  58  46 S6        30.06F
FRANKFORT      NOT AVBL
$$

KYZ054-064>069-076>088-106>120-132300-
SOUTHEAST KENTUCKY

CITY           SKY/WX    TMP DP  RH WIND       PRES   REMARKS
JACKSON        MOSUNNY   81  58  45 NW3       30.09F
LONDON         MOSUNNY   82  61  48 NW8       30.07F
SOMERSET       NOT AVBL
MIDDLESBORO    SUNNY     82  64  54 N5        30.07F
MONTICELLO     CLEAR     82  66  58 VRB3      30.08F
$$



ASUS43 KLMK 132210
RWRKY
KENTUCKY REGIONAL WEATHER ROUNDUP
NATIONAL WEATHER SERVICE LOUISVILLE KY
600 PM EDT SAT AUG 13 2022

NOTE "FAIR" INDICATES FEW OR NO CLOUDS BELOW 12,000 FEET
WITH NO SIGNIFICANT WEATHER AND/OR OBSTRUCTIONS TO VISIBILITY.

KYZ001>023-026-027-061>063-070>075-132300-
WESTERN AND SOUTH CENTRAL KENTUCKY

CITY           SKY/WX    TMP DP  RH WIND       PRES   REMARKS
PADUCAH        SUNNY     88  55  32 VRB3      30.03F
HENDERSON      MOSUNNY   82  60  47 CALM      30.05F
OWENSBORO      MOSUNNY   82  61  48 S7        30.05F
HOPKINSVILLE   SUNNY     82  58  44 E6        30.03F
BOWLING GREEN  PTSUNNY   84  59  42 CALM      30.04F
GLASGOW        MOSUNNY   82  63  51 CALM      30.05F
$$

KYZ024-025-028>034-038-045-046-053-132300-
NORTH CENTRAL KENTUCKY

CITY           SKY/WX    TMP DP  RH WIND       PRES   REMARKS
LOUISVILLE/SDF PTSUNNY   83  58  42 SE10      30.04F
LOUISVILLE/LOU MOSUNNY   83  57  41 SE7       30.05F
FORT KNOX      MOSUNNY   80  57  44 NE7       30.04F
$$

KYZ035>037-039>044-047>052-055>060-089>105-132300-
NORTHEAST KENTUCKY

CITY           SKY/WX    TMP DP  RH WIND       PRES   REMARKS
LEXINGTON      MOSUNNY   83  53  35 CALM      30.07F
COVINGTON      PTSUNNY   80  58  46 S6        30.06F
FRANKFORT      NOT AVBL
$$

KYZ054-064>069-076>088-106>120-132300-
SOUTHEAST KENTUCKY

CITY           SKY/WX    TMP DP  RH WIND       PRES   REMARKS
JACKSON        SUNNY     81  58  45 NW3       30.09F
LONDON         MOSUNNY   82  61  48 NW8       30.07F
SOMERSET       MOSUNNY   82  57  42 CALM      30.04F
MIDDLESBORO    SUNNY     82  64  54 N5        30.07F
MONTICELLO     CLEAR     82  66  58 VRB3      30.08F
$$